Whyalla, Australia

3:53 PM ACDT on March 28, 2017 (GMT +1030)
Whyalla

Weather History for YWHA - January, 2013

Change the Weather History Date:

Wednesday, January 2, 2013

  Actual Average Record
Temperature  
Mean Temperature 78 °F -  
Max Temperature 89 °F - - ()
Min Temperature 66 °F - - ()
Cooling Degree Days 12    
Growing Degree Days 28 (Base 50)    
Moisture  
Dew Point 55 °F    
Average Humidity 54    
Maximum Humidity 83    
Minimum Humidity 13    
Precipitation  
Precipitation 0.00 in - - ()
Sea Level Pressure  
Sea Level Pressure 29.94 in    
Wind  
Wind Speed 10 mph ()    
Max Wind Speed 17 mph    
Max Gust Speed -    
Visibility 6.2 miles    
Events      
T = Trace of Precipitation, MM = Missing Value Source: Averaged Metar Reports

Daily Weather History Graph

Daily Weather History Graph

Search for Another Location

Airport or City:

Trip Planner

Search our weather history database for the weather conditions in past years. The results will help you decide how hot, cold, wet, or windy it might be!

Date:

Astronomy

Jan. 02, 2013 Rise Set
Actual Time 6:15 AM ACDT 8:32 PM ACDT
Civil Twilight 5:46 AM ACDT 9:00 PM ACDT
Nautical Twilight 5:11 AM ACDT 9:35 PM ACDT
Astronomical Twilight 4:33 AM ACDT 10:13 PM ACDT
Moon 11:18 PM ACDT (1/2) 10:31 AM ACDT (1/2)
Length of Visible Light 15h 13m
Length of Day
14h 16m
Waning Gibbous, 81% of the Moon is Illuminated
Jan 2
Waning Gibbous
Jan 5
Last Quarter
Jan 12
New
Jan 19
First Quarter
Jan 27
Full

Hourly Weather History & Observations

Time (ACDT) Temp. Heat Index Dew Point Humidity Pressure Visibility Wind Dir Wind Speed Gust Speed Precip Events Conditions
12:30 AM 71.6 °F - 60.8 °F 69% 29.98 in 6.2 mi South 12.7 mph - N/A   Unknown
1:30 AM 69.8 °F - 60.8 °F 73% 29.98 in 6.2 mi South 8.1 mph - N/A   Unknown
2:30 AM 68.0 °F - 59.0 °F 73% 29.95 in 6.2 mi South 6.9 mph - N/A   Unknown
3:30 AM 68.0 °F - 62.6 °F 83% 29.95 in 6.2 mi SSE 9.2 mph - N/A   Unknown
4:30 AM 68.0 °F - 60.8 °F 78% 29.95 in 6.2 mi South 9.2 mph - N/A   Unknown
5:30 AM 66.2 °F - 60.8 °F 83% 29.95 in 6.2 mi South 11.5 mph - N/A   Unknown
6:30 AM 66.2 °F - 60.8 °F 83% 29.95 in 6.2 mi South 10.4 mph - N/A   Unknown
7:30 AM 69.8 °F - 60.8 °F 73% 29.98 in 6.2 mi South 10.4 mph - N/A   Unknown
8:30 AM 71.6 °F - 60.8 °F 69% 29.98 in 6.2 mi South 12.7 mph - N/A   Unknown
9:30 AM 73.4 °F - 59.0 °F 61% 29.98 in 6.2 mi South 11.5 mph - N/A   Unknown
10:30 AM 75.2 °F - 59.0 °F 57% 29.98 in 6.2 mi South 11.5 mph - N/A   Unknown
11:30 AM 77.0 °F - 57.2 °F 50% 29.98 in 6.2 mi South 11.5 mph - N/A   Unknown
12:30 PM 82.4 °F - 50.0 °F 32% 29.98 in 6.2 mi SSE 8.1 mph - N/A   Unknown
1:30 PM 87.8 °F - 42.8 °F 21% 29.95 in 6.2 mi South 10.4 mph - N/A   Unknown
2:30 PM 89.6 °F - 32.0 °F 13% 29.92 in 6.2 mi SSE 11.5 mph - N/A   Unknown
3:30 PM 89.6 °F - 37.4 °F 16% 29.89 in 6.2 mi South 12.7 mph - N/A   Unknown
4:30 PM 89.6 °F - 42.8 °F 20% 29.89 in 6.2 mi South 15.0 mph - N/A   Unknown
5:30 PM 87.8 °F - 50.0 °F 27% 29.86 in 6.2 mi South 15.0 mph - N/A   Unknown
6:30 PM 86.0 °F - 51.8 °F 31% 29.86 in 6.2 mi South 16.1 mph - N/A   Unknown
7:30 PM 82.4 °F 82.0 °F 57.2 °F 42% 29.86 in 6.2 mi South 17.3 mph - N/A   Unknown
8:30 PM 78.8 °F - 59.0 °F 51% 29.89 in 6.2 mi South 16.1 mph - N/A   Unknown
9:30 PM 78.8 °F - 59.0 °F 51% 29.92 in 6.2 mi South 17.3 mph - N/A   Unknown
10:30 PM 77.0 °F - 62.6 °F 61% 29.92 in 6.2 mi South 15.0 mph - N/A   Unknown
11:30 PM 75.2 °F - 64.4 °F 69% 29.92 in 6.2 mi South 9.2 mph - N/A   Unknown